| time (UTC) | temp F | wind direction | speed MPH | gust MPH | rain 1hr in | rain 24hr in | rain mn in | humidity % | barometer mb |
| 20260902093305 | 61 | 200 | 0.0 | 3.0 | 0.00 | 0.00 | 0.00 | 61 | 1013.3 |
| 20260902092805 | 61 | 200 | 2.0 | 3.0 | 0.00 | 0.00 | 0.00 | 62 | 1013.3 |
| 20260902092305 | 62 | 200 | 3.0 | 3.0 | 0.00 | 0.00 | 0.00 | 63 | 1013.3 |
| 20260902091805 | 62 | 200 | 0.0 | 0.0 | 0.00 | 0.00 | 0.00 | 63 | 1013.3 |
| 20260902090305 | 62 | 200 | 2.0 | 3.0 | 0.00 | 0.00 | 0.00 | 61 | 1013.3 |
| 20260902085306 | 61 | 200 | 1.0 | 3.0 | 0.00 | 0.00 | 0.00 | 65 | 1013.3 |
| 20260902083305 | 62 | 200 | 1.0 | 2.0 | 0.00 | 0.00 | 0.00 | 62 | 1013.3 |
| 20260902082805 | 63 | 200 | 1.0 | 2.0 | 0.00 | 0.00 | 0.00 | 61 | 1013.3 |
| 20260902082309 | 63 | 200 | 0.0 | 1.0 | 0.00 | 0.00 | 0.00 | 60 | 1013.3 |
| 20260902073305 | 65 | 205 | 1.0 | 2.0 | 0.00 | 0.00 | 0.00 | 55 | 1013.3 |
| 20260902071804 | 65 | 281 | 2.0 | 5.0 | 0.00 | 0.00 | 0.00 | 57 | 1013.3 |
| 20260902070805 | 65 | 255 | 2.0 | 3.0 | 0.00 | 0.00 | 0.00 | 59 | 1013.3 |
| 20260902065805 | 64 | 302 | 1.0 | 2.0 | 0.00 | 0.00 | 0.00 | 61 | 1013.3 |
| 20260902065307 | 65 | 302 | 0.0 | 2.0 | 0.00 | 0.00 | 0.00 | 60 | 1013.3 |
| 20260902064305 | 66 | 244 | 1.0 | 2.0 | 0.00 | 0.00 | 0.00 | 59 | 1013.3 |
| 20260902060304 | 68 | 265 | 3.0 | 5.0 | 0.00 | 0.00 | 0.00 | 54 | 1013.3 |
| 20260902055804 | 69 | 272 | 4.0 | 8.0 | 0.00 | 0.00 | 0.00 | 54 | 1013.3 |
| 20260902055307 | 68 | 300 | 3.0 | 7.0 | 0.00 | 0.00 | 0.00 | 55 | 1013.3 |
| 20260902054804 | 68 | 303 | 3.0 | 7.0 | 0.00 | 0.00 | 0.00 | 55 | 1013.3 |
| 20260902054305 | 68 | 296 | 3.0 | 5.0 | 0.00 | 0.00 | 0.00 | 56 | 1013.3 |
| 20260902053805 | 67 | 340 | 2.0 | 5.0 | 0.00 | 0.00 | 0.00 | 57 | 1013.3 |
| 20260902053305 | 67 | 298 | 3.0 | 5.0 | 0.00 | 0.00 | 0.00 | 58 | 1013.3 |
| 20260902050805 | 70 | 319 | 1.0 | 6.0 | 0.00 | 0.00 | 0.00 | 54 | 1013.3 |
| 20260902050304 | 70 | 280 | 2.0 | 3.0 | 0.00 | 0.00 | 0.00 | 55 | 1013.3 |
| 20260902044304 | 70 | 12 | 1.0 | 3.0 | 0.00 | 0.00 | 0.00 | 55 | 1013.3 |
| 20260902043804 | 70 | 289 | 2.0 | 5.0 | 0.00 | 0.00 | 0.00 | 57 | 1013.3 |
| 20260902042805 | 69 | 32 | 3.0 | 5.0 | 0.00 | 0.00 | 0.00 | 57 | 1013.3 |
| 20260902042308 | 69 | 34 | 2.0 | 3.0 | 0.00 | 0.00 | 0.00 | 58 | 1013.3 |
| 20260902041805 | 69 | 49 | 2.0 | 3.0 | 0.00 | 0.00 | 0.00 | 58 | 1013.3 |
| 20260902041305 | 69 | 34 | 1.0 | 3.0 | 0.00 | 0.00 | 0.00 | 59 | 1013.3 |
| 20260902035805 | 69 | 51 | 2.0 | 3.0 | 0.00 | 0.00 | 0.00 | 59 | 1013.3 |
| 20260902034805 | 69 | 53 | 2.0 | 3.0 | 0.00 | 0.00 | 0.00 | 58 | 1013.3 |
| 20260902033805 | 69 | 29 | 1.0 | 2.0 | 0.00 | 0.00 | 0.00 | 56 | 1013.3 |
| 20260902033304 | 70 | 29 | 1.0 | 2.0 | 0.00 | 0.00 | 0.00 | 54 | 1013.3 |
| 20260902032306 | 71 | 15 | 1.0 | 2.0 | 0.00 | 0.00 | 0.00 | 53 | 1013.3 |
| 20260902030305 | 71 | 51 | 1.0 | 1.0 | 0.00 | 0.01 | 0.00 | 51 | 1013.3 |
| 20260902025804 | 72 | 51 | 0.0 | 1.0 | 0.00 | 0.02 | 0.00 | 49 | 1013.3 |
| 20260902025306 | 73 | 51 | 2.0 | 5.0 | 0.00 | 0.02 | 0.00 | 48 | 1013.3 |
| 20260902024805 | 73 | 43 | 2.0 | 3.0 | 0.00 | 0.02 | 0.00 | 47 | 1013.3 |
| 20260902023305 | 75 | 17 | 2.0 | 5.0 | 0.00 | 0.02 | 0.00 | 42 | 1013.3 |
| 20260902021804 | 76 | 52 | 5.0 | 10.0 | 0.00 | 0.02 | 0.00 | 42 | 1013.3 |
| 20260902021305 | 76 | 25 | 3.0 | 8.0 | 0.00 | 0.02 | 0.00 | 43 | 1013.3 |
| 20260902020804 | 76 | 15 | 6.0 | 8.0 | 0.00 | 0.02 | 0.00 | 45 | 1013.3 |
| 20260902020304 | 76 | 349 | 3.0 | 7.0 | 0.00 | 0.02 | 0.00 | 46 | 1013.3 |
| 20260902014305 | 76 | 350 | 6.0 | 9.0 | 0.00 | 0.02 | 0.00 | 52 | 1013.3 |
| 20260902013305 | 79 | 3 | 3.0 | 7.0 | 0.00 | 0.02 | 0.00 | 39 | 1013.3 |
| 20260902012804 | 79 | 335 | 2.0 | 3.0 | 0.00 | 0.02 | 0.00 | 38 | 1013.3 |
| 20260902012309 | 80 | 300 | 0.0 | 2.0 | 0.00 | 0.02 | 0.00 | 36 | 1013.3 |
| 20260902010306 | 80 | 19 | 0.0 | 3.0 | 0.00 | 0.07 | 0.00 | 37 | 1013.3 |
| 20260902005805 | 81 | 19 | 1.0 | 3.0 | 0.00 | 0.08 | 0.00 | 34 | 1013.3 |
| 20260902005306 | 81 | 98 | 0.0 | 2.0 | 0.00 | 0.08 | 0.00 | 35 | 1013.3 |
| 20260902003805 | 81 | 355 | 0.0 | 1.0 | 0.00 | 0.08 | 0.00 | 36 | 1013.3 |
| 20260902003305 | 81 | 355 | 0.0 | 2.0 | 0.00 | 0.08 | 0.00 | 36 | 1013.3 |
| 20260902002805 | 81 | 356 | 1.0 | 3.0 | 0.00 | 0.08 | 0.00 | 34 | 1013.3 |
| 20260902002306 | 81 | 11 | 0.0 | 1.0 | 0.00 | 0.08 | 0.00 | 34 | 1013.3 |
| 20260902001804 | 82 | 11 | 1.0 | 2.0 | 0.00 | 0.08 | 0.00 | 33 | 1013.3 |
| 20260902000305 | 82 | 31 | 2.0 | 3.0 | 0.00 | 0.08 | 0.00 | 32 | 1013.3 |
| 20260901234805 | 84 | 82 | 5.0 | 8.0 | 0.00 | 0.08 | 0.00 | 29 | 1013.3 |
| 20260901234305 | 84 | 60 | 3.0 | 6.0 | 0.00 | 0.08 | 0.00 | 30 | 1013.3 |
| 20260901233805 | 85 | 57 | 3.0 | 7.0 | 0.00 | 0.08 | 0.00 | 28 | 1013.3 |
| 20260901233305 | 85 | 62 | 3.0 | 9.0 | 0.00 | 0.08 | 0.00 | 29 | 1013.3 |
| 20260901232805 | 85 | 78 | 4.0 | 7.0 | 0.00 | 0.08 | 0.00 | 29 | 1013.3 |
| 20260901231304 | 87 | 282 | 1.0 | 5.0 | 0.00 | 0.08 | 0.00 | 28 | 1013.3 |
| 20260901230805 | 86 | 323 | 3.0 | 7.0 | 0.00 | 0.08 | 0.00 | 27 | 1013.3 |
| 20260901225804 | 88 | 14 | 3.0 | 6.0 | 0.00 | 0.08 | 0.00 | 26 | 1013.3 |
| 20260901224805 | 88 | 81 | 2.0 | 5.0 | 0.00 | 0.08 | 0.00 | 29 | 1013.3 |
| 20260901224304 | 88 | 91 | 3.0 | 12.0 | 0.00 | 0.08 | 0.00 | 26 | 1013.3 |
| 20260901221804 | 88 | 166 | 6.0 | 12.0 | 0.00 | 0.08 | 0.00 | 25 | 1013.3 |
| 20260901220304 | 85 | 108 | 12.0 | 26.0 | 0.00 | 0.08 | 0.00 | 30 | 1013.3 |
| 20260901215805 | 85 | 176 | 6.0 | 17.0 | 0.00 | 0.08 | 0.00 | 30 | 1013.3 |
| 20260901214804 | 84 | 230 | 5.0 | 8.0 | 0.00 | 0.08 | 0.00 | 30 | 1013.3 |
| 20260901214305 | 84 | 223 | 5.0 | 8.0 | 0.00 | 0.08 | 0.00 | 30 | 1013.3 |
| 20260901213305 | 85 | 256 | 3.0 | 8.0 | 0.00 | 0.08 | 0.00 | 28 | 1013.3 |
| 20260901212805 | 86 | 145 | 5.0 | 10.0 | 0.00 | 0.08 | 0.00 | 29 | 1013.3 |
| 20260901212306 | 85 | 172 | 6.0 | 9.0 | 0.00 | 0.08 | 0.00 | 30 | 1013.3 |
| 20260901211804 | 85 | 265 | 2.0 | 7.0 | 0.00 | 0.08 | 0.00 | 28 | 1013.3 |
| 20260901205306 | 89 | 94 | 5.0 | 10.0 | 0.00 | 0.08 | 0.00 | 28 | 1013.3 |
| 20260901204305 | 88 | 161 | 5.0 | 9.0 | 0.00 | 0.08 | 0.00 | 31 | 1013.3 |
| 20260901203804 | 87 | 170 | 6.0 | 9.0 | 0.00 | 0.08 | 0.00 | 28 | 1013.3 |
| 20260901203304 | 88 | 163 | 5.0 | 9.0 | 0.00 | 0.08 | 0.00 | 27 | 1013.3 |
| 20260901202306 | 89 | 155 | 7.0 | 12.0 | 0.00 | 0.08 | 0.00 | 28 | 1013.3 |
| 20260901201804 | 89 | 51 | 3.0 | 12.0 | 0.00 | 0.08 | 0.00 | 27 | 1013.3 |
| 20260901200805 | 88 | 137 | 5.0 | 12.0 | 0.00 | 0.08 | 0.00 | 29 | 1013.3 |
| 20260901200304 | 88 | 103 | 6.0 | 12.0 | 0.00 | 0.08 | 0.00 | 29 | 1013.3 |
| 20260901195306 | 88 | 103 | 9.0 | 12.0 | 0.00 | 0.08 | 0.00 | 28 | 1013.3 |
| 20260901194804 | 87 | 163 | 6.0 | 9.0 | 0.00 | 0.08 | 0.00 | 28 | 1013.3 |
| 20260901194305 | 88 | 119 | 6.0 | 12.0 | 0.00 | 0.08 | 0.00 | 29 | 1013.3 |
| 20260901192804 | 87 | 144 | 6.0 | 12.0 | 0.00 | 0.08 | 0.00 | 31 | 1013.3 |
| 20260901192306 | 86 | 150 | 7.0 | 12.0 | 0.00 | 0.08 | 0.00 | 32 | 1013.3 |
| 20260901190305 | 85 | 76 | 6.0 | 9.0 | 0.00 | 0.08 | 0.00 | 31 | 1013.3 |
| 20260901185805 | 85 | 168 | 6.0 | 12.0 | 0.00 | 0.08 | 0.00 | 34 | 1013.3 |
| 20260901185306 | 85 | 149 | 7.0 | 14.0 | 0.00 | 0.08 | 0.00 | 37 | 1013.3 |
| 20260901184805 | 84 | 119 | 6.0 | 12.0 | 0.00 | 0.08 | 0.00 | 37 | 1013.3 |
| 20260901183304 | 83 | 117 | 7.0 | 12.0 | 0.00 | 0.08 | 0.00 | 38 | 1013.3 |
| 20260901182804 | 84 | 130 | 3.0 | 14.0 | 0.00 | 0.08 | 0.00 | 39 | 1013.3 |
| 20260901181304 | 82 | 161 | 6.0 | 8.0 | 0.00 | 0.08 | 0.00 | 36 | 1013.3 |
| 20260901180804 | 81 | 148 | 6.0 | 12.0 | 0.00 | 0.08 | 0.00 | 40 | 1013.3 |
| 20260901175805 | 82 | 132 | 5.0 | 8.0 | 0.00 | 0.08 | 0.00 | 44 | 1013.3 |
| 20260901174305 | 81 | 99 | 3.0 | 6.0 | 0.00 | 0.08 | 0.00 | 47 | 1013.3 |
| 20260901173804 | 81 | 100 | 6.0 | 9.0 | 0.00 | 0.08 | 0.00 | 48 | 1013.3 |
| 20260901173304 | 79 | 149 | 6.0 | 12.0 | 0.00 | 0.08 | 0.00 | 48 | 1013.3 |
| 20260901172804 | 79 | 134 | 4.0 | 9.0 | 0.00 | 0.08 | 0.00 | 50 | 1013.3 |
| 20260901172305 | 79 | 175 | 5.0 | 10.0 | 0.00 | 0.08 | 0.00 | 49 | 1013.3 |
| 20260901170804 | 77 | 201 | 3.0 | 7.0 | 0.00 | 0.08 | 0.00 | 51 | 1013.3 |
| 20260901163304 | 74 | 160 | 5.0 | 8.0 | 0.00 | 0.08 | 0.00 | 62 | 1013.3 |
| 20260901162306 | 72 | 112 | 5.0 | 8.0 | 0.00 | 0.08 | 0.00 | 64 | 1013.3 |
| 20260901161804 | 72 | 169 | 5.0 | 10.0 | 0.00 | 0.08 | 0.00 | 70 | 1013.3 |
| 20260901160804 | 68 | 174 | 2.0 | 3.0 | 0.00 | 0.08 | 0.00 | 73 | 1013.3 |
| 20260901155306 | 67 | 179 | 0.0 | 3.0 | 0.00 | 0.08 | 0.00 | 74 | 1013.3 |
| 20260901154805 | 67 | 179 | 3.0 | 5.0 | 0.00 | 0.08 | 0.00 | 74 | 1013.3 |
| 20260901153804 | 68 | 170 | 4.0 | 5.0 | 0.00 | 0.08 | 0.00 | 75 | 1013.3 |
| 20260901153304 | 67 | 166 | 1.0 | 3.0 | 0.00 | 0.08 | 0.00 | 75 | 1013.3 |
| 20260901151804 | 67 | 32 | 0.0 | 0.0 | 0.00 | 0.08 | 0.00 | 76 | 1013.3 |
| 20260901151304 | 66 | 253 | 0.0 | 1.0 | 0.00 | 0.08 | 0.00 | 76 | 1013.3 |
| 20260901150804 | 66 | 0 | 0.0 | 0.0 | 0.00 | 0.08 | 0.00 | 76 | 1013.3 |
| 20260901145306 | 65 | 304 | 1.0 | 5.0 | 0.00 | 0.08 | 0.00 | 79 | 1013.3 |
| 20260901144305 | 65 | 226 | 0.0 | 2.0 | 0.00 | 0.08 | 0.00 | 80 | 1013.3 |
| 20260901143305 | 65 | 201 | 1.0 | 3.0 | 0.00 | 0.08 | 0.00 | 80 | 1013.3 |
| 20260901142306 | 64 | 232 | 1.0 | 3.0 | 0.00 | 0.08 | 0.00 | 81 | 1013.3 |
| 20260901141805 | 64 | 254 | 0.0 | 2.0 | 0.00 | 0.08 | 0.00 | 81 | 1013.3 |
| 20260901141305 | 64 | 198 | 2.0 | 3.0 | 0.00 | 0.08 | 0.00 | 81 | 1013.3 |
| 20260901135305 | 63 | 176 | 0.0 | 0.0 | 0.00 | 0.08 | 0.00 | 83 | 1013.3 |
| 20260901134804 | 63 | 176 | 0.0 | 2.0 | 0.00 | 0.08 | 0.00 | 83 | 1013.3 |
| 20260901133304 | 62 | 188 | 2.0 | 5.0 | 0.00 | 0.08 | 0.00 | 85 | 1013.3 |
| 20260901131304 | 61 | 169 | 1.0 | 5.0 | 0.00 | 0.08 | 0.00 | 86 | 1013.3 |
| 20260901125804 | 61 | 283 | 0.0 | 2.0 | 0.00 | 0.08 | 0.00 | 86 | 1013.3 |
| 20260901124804 | 60 | 207 | 0.0 | 0.0 | 0.00 | 0.08 | 0.00 | 86 | 1013.3 |
| 20260901123804 | 60 | 207 | 0.0 | 0.0 | 0.00 | 0.08 | 0.00 | 86 | 1013.3 |
| 20260901123304 | 60 | 207 | 0.0 | 0.0 | 0.00 | 0.08 | 0.00 | 86 | 1013.3 |
| 20260901122804 | 61 | 207 | 0.0 | 1.0 | 0.00 | 0.08 | 0.00 | 85 | 1013.3 |
| 20260901114804 | 62 | 227 | 1.0 | 5.0 | 0.00 | 0.08 | 0.00 | 82 | 1014.3 |
| 20260901113804 | 62 | 197 | 2.0 | 3.0 | 0.00 | 0.08 | 0.00 | 83 | 1014.3 |
| 20260901111804 | 62 | 180 | 3.0 | 6.0 | 0.00 | 0.08 | 0.00 | 84 | 1014.3 |
| 20260901111304 | 62 | 190 | 3.0 | 6.0 | 0.00 | 0.08 | 0.00 | 85 | 1014.3 |
| 20260901105305 | 62 | 186 | 1.0 | 3.0 | 0.00 | 0.08 | 0.00 | 86 | 1014.3 |
| 20260901103305 | 62 | 181 | 2.0 | 3.0 | 0.00 | 0.08 | 0.00 | 88 | 1014.3 |
| 20260901102805 | 62 | 171 | 2.0 | 5.0 | 0.00 | 0.08 | 0.00 | 88 | 1014.3 |
| 20260901101304 | 62 | 173 | 2.0 | 5.0 | 0.00 | 0.08 | 0.00 | 89 | 1014.3 |
| 20260901100304 | 61 | 167 | 2.0 | 3.0 | 0.00 | 0.08 | 0.00 | 89 | 1014.3 |
| 20260901095804 | 61 | 174 | 1.0 | 3.0 | 0.00 | 0.08 | 0.00 | 89 | 1014.3 |